Location: Bremen
(53.0793°N, 8.8017°E)
Time: 02:03:11
(UTC+02:00)

A-11 Canister half - Pass Details

Date: 17 April 2024
Orbit: 1525 x 1683 km, 47.3° (Epoch: 19 May)

Event Time Altitude Azimuth Distance (km) Brightness Sun altitude
Rises 05:39:11 0° 167° (SSE) 4,870 11.5 -6.5°
Reaches altitude 10° 05:45:56 10° 135° (SE) 3,921 11.4 -5.6°
Maximum altitude 05:48:10 11° 121° (ESE) 3,856 11.6 -5.3°
Drops below altitude 10° 05:50:23 10° 108° (ESE) 3,938 11.9 -5.0°
Sets 05:57:11 0° 77° (ENE) 4,942 13.9 -4.1°
